Moses Lake, WA
on Saturday, November 17, 2012

Saturday
Previous Day Next Day
Daily Summary
 ActualAverageRecord
Temperature
Mean Temperature °F 37°F  
Max Temperature 45°F 45°F 57°F (1983)
Min Temperature 36°F 29°F 14°F (1985)
Degree Days
Heating Degree Days 24 28  
Month to date heating degree days 395 424  
Since 1 July heating degree days 920 1061  
Cooling Degree Days 0 0  
Month to date cooling degree days 0 0  
Year to date cooling degree days 719 615  
Moisture
Dew Point 37°F   
Average Humidity 88    
Maximum Humidity 92    
Minimum Humidity 83    
Precipitation
Precipitation 0.06 in 0.04 in 0.30 in (1981)
Month to date precipitation 0.68 0.65  
Year to date precipitation 7.28 7.12  
Wind
Wind Speed 5 mph   
Max Wind Speed 17 mph   
Max Gust Speed 21 mph   
Visibility 8 miles   
Events Rain   

Key: T is trace of precipitation, MM is missing value
Source: NWS Daily Summary
Time(PST)TemperatureDew PointHumidity Pressure Visibility Wind DirectionWind SpeedGust SpeedPrecipitationEvents Conditions
12:38 AM 39.2°F 35.6°F 87% 29.89 in 10.0 miles Calm Calm - N/A   Overcast
12:52 AM 37.9°F 35.1°F 89% 29.91 in 9.0 miles NNW 4.6 mph - N/A   Overcast
1:52 AM 39.0°F 35.1°F 86% 29.89 in 9.0 miles NNW 3.5 mph - N/A   Overcast
2:39 AM 39.2°F 35.6°F 87% 29.86 in 9.0 miles NW 4.6 mph - N/A   Overcast
2:52 AM 39.0°F 35.1°F 86% 29.88 in 10.0 miles NW 3.5 mph - N/A   Overcast
3:25 AM 37.4°F 33.8°F 87% 29.84 in 9.0 miles NW 3.5 mph - N/A   Overcast
3:52 AM 37.9°F 34.0°F 86% 29.86 in 10.0 miles NNW 4.6 mph - N/A   Overcast
4:52 AM 37.0°F 34.0°F 89% 29.83 in 7.0 miles NNE 3.5 mph - N/A   Overcast
5:52 AM 36.0°F 33.1°F 89% 29.82 in 6.0 miles Calm Calm - N/A   Mostly Cloudy
6:52 AM 37.0°F 34.0°F 89% 29.81 in 6.0 miles Calm Calm - N/A   Overcast
7:52 AM 37.0°F 34.0°F 89% 29.80 in 4.0 miles Calm Calm - 0.02 in   Overcast
8:52 AM 37.9°F 35.1°F 89% 29.77 in 6.0 miles Calm Calm - N/A   Overcast
9:52 AM 39.9°F 36.0°F 86% 29.74 in 7.0 miles NNE 4.6 mph - 0.00 in Rain Light Rain
10:28 AM 41.0°F 37.4°F 87% 29.70 in 8.0 miles North 4.6 mph - N/A   Overcast
10:52 AM 42.1°F 39.0°F 89% 29.70 in 10.0 miles North 3.5 mph - N/A   Overcast
11:52 AM 45.0°F 39.9°F 82% 29.67 in 10.0 miles Calm Calm - 0.00 in   Scattered Clouds
12:00 PM 44.6°F 39.2°F 81% 29.64 in 10.0 miles West 3.5 mph - N/A   Mostly Cloudy
12:52 PM 45.0°F 39.9°F 82% 29.63 in 10.0 miles Calm Calm - N/A   Mostly Cloudy
1:52 PM 45.0°F 39.0°F 80% 29.62 in 10.0 miles SSW 3.5 mph - N/A   Overcast
2:52 PM 45.0°F 39.9°F 82% 29.60 in 10.0 miles WSW 3.5 mph - 0.00 in   Overcast
3:16 PM 44.6°F 39.2°F 81% 29.58 in 9.0 miles Calm Calm - N/A   Overcast
3:38 PM 44.6°F 39.2°F 81% 29.57 in 9.0 miles Calm Calm - N/A   Overcast
3:45 PM 44.6°F 39.2°F 81% 29.57 in 7.0 miles ESE 3.5 mph - 0.00 in Rain Light Rain
3:52 PM 44.1°F 39.9°F 85% 29.59 in 7.0 miles East 3.5 mph - 0.00 in Rain Light Rain
4:52 PM 43.0°F 39.9°F 89% 29.58 in 7.0 miles ESE 5.8 mph - 0.00 in   Mostly Cloudy
5:52 PM 43.0°F 39.9°F 89% 29.60 in 7.0 miles WSW 10.4 mph - N/A   Overcast
6:06 PM 42.8°F 39.2°F 87% 29.58 in 7.0 miles WSW 8.1 mph - 0.01 in   Overcast
6:52 PM 43.0°F 39.0°F 86% 29.60 in 8.0 miles WSW 6.9 mph - 0.01 in   Overcast
7:52 PM 42.1°F 39.0°F 89% 29.62 in 7.0 miles SW 8.1 mph - 0.00 in Rain Light Rain
8:52 PM 42.1°F 39.0°F 89% 29.65 in 7.0 miles South 13.8 mph - 0.01 in Rain Light Rain
9:52 PM 42.1°F 39.0°F 89% 29.67 in 7.0 miles South 9.2 mph - 0.02 in   Overcast
10:20 PM 42.8°F 39.2°F 87% 29.66 in 8.0 miles South 12.7 mph - N/A   Overcast
10:52 PM 43.0°F 39.0°F 86% 29.70 in 10.0 miles SSW 10.4 mph - N/A   Clear
11:52 PM 42.1°F 37.9°F 85% 29.73 in 10.0 miles South 11.5 mph - N/A   Clear
Moon Phase
Nov. 17 Nov. 20 Nov. 28 Dec. 06 Dec. 13
Sunrise:07:05 AM (PST) Moon Rise:10:53 AM (PST)11/17
Sunset:04:19 PM (PST) Moon Set:08:36 PM (PST)11/17

Copyright © 2014 The Weather Underground, Inc.